Вернуться в каталог

KHORS NO. 1

АктивенВоенныеSSO
NORAD 57188·PAYLOAD·🇷🇺 Russia
Это название спутника еще не подтверждено официальными источниками.

Запущен Jun 27, 2023 с Vostochny Cosmodrome

Loading…

Ближайшие Пролёты (ближайшие 24 часа)

TLE

СвежийSource: Space-Track

Эпоха: Sep 14, 2026, 22:15 UTC

1 57188U 23091Y   26257.92738246  .00008812  00000-0  32419-3 0  9998
2 57188  97.4972 322.0348 0009763 130.0687 230.1410 15.28071045178012

Отслеживайте KHORS NO. 1 в реальном времени с AllMySat

Download on the App Store